Location: Pasarilla del Rebollar
(40.6790°N, 5.0062°W)
Time: 11:49:32
(UTC+00:00)

Meteor 2-4 Rocket - Pass Details

Date: 22 April 2026
Orbit: 798 x 906 km, 81.2° (Epoch: 16 May)

Event Time Altitude Azimuth Distance (km) Brightness Sun altitude
Exits shadow 03:34:19 32° 192° (SSW) 1,343 4.3 -20.5°
Maximum altitude 03:36:52 86° 278° (W) 810 3.5 -20.1°
Drops below altitude 10° 03:42:14 10° 9° (N) 2,379 6.7 -19.3°
Sets 03:44:37 0° 10° (N) 3,314 7.5 -18.9°
